SP8UWU-13 Weather Reports


time (UTC)temp
C
wind
direction
speed
KPH
gust
KPH
rain 1hr
cm
rain 24hr
cm
rain mn
cm
humidity
%
barometer
mb
20260906010244 15 288 6.4 6.4 0.00 0.00 0.00 62
20260906005233 15 300 1.6 1.6 0.00 0.00 0.00 61
20260906003159 15 324 1.6 1.6 0.00 0.00 0.00 60
20260906002148 16 222 0.0 0.0 0.00 0.00 0.00 60
20260906001139 16 270 0.0 0.0 0.00 0.00 0.00 60
20260905235104 16 168 1.6 1.6 0.00 0.00 0.00 60
20260905234056 16 340 1.6 1.6 0.00 0.00 0.00 59
20260905233045 16 58 0.0 0.0 0.00 0.00 0.00 60
20260905231009 15 258 0.0 0.0 0.00 0.00 0.00 66
20260905230001 14 216 0.0 0.0 0.00 0.00 0.00 74
20260905224950 14 234 0.0 0.0 0.00 0.00 0.00 74
20260905222916 14 210 0.0 0.0 0.00 0.00 0.00 76
20260905221907 15 220 0.0 0.0 0.00 0.00 0.00 74
20260905220902 15 305 0.0 0.0 0.00 0.00 0.00 70
20260905214828 15 244 0.0 0.0 0.00 0.10 0.10 73
20260905213816 15 276 0.0 0.0 0.00 0.10 0.10 71
20260905212811 15 240 0.0 0.0 0.00 0.10 0.10 70
20260905210741 14 226 0.0 0.0 0.00 0.10 0.10 76
20260905205731 14 221 0.0 0.0 0.00 0.10 0.10 73
20260905204721 14 222 0.0 0.0 0.00 0.10 0.10 73
20260905202645 14 225 0.0 0.0 0.00 0.10 0.10 76
20260905201644 14 216 0.0 0.0 0.00 0.10 0.10 79
20260905200633 15 232 0.0 0.0 0.00 0.10 0.10 76
20260905194556 15 222 0.0 0.0 0.00 0.10 0.10 76
20260905193544 15 210 0.0 0.0 0.00 0.10 0.10 73
20260905192538 15 246 0.0 0.0 0.00 0.10 0.10 71
20260905190305 15 222 0.0 0.0 0.00 0.10 0.10 69
20260905185253 15 228 0.0 0.0 0.00 0.10 0.10 69
20260905184252 16 234 0.0 0.0 0.00 0.10 0.10 67
20260905182215 16 216 0.0 0.0 0.00 0.10 0.10 67
20260905181204 17 221 0.0 0.0 0.00 0.10 0.10 64
20260905180152 17 221 0.0 0.0 0.00 0.10 0.10 62
20260905174129 18 222 0.0 0.0 0.00 0.10 0.10 55
20260905173117 19 221 0.0 0.0 0.00 0.10 0.10 54
20260905172111 19 305 0.0 0.0 0.00 0.10 0.10 53
20260905170033 19 306 0.0 0.0 0.00 0.10 0.10 54
20260905165022 20 315 0.0 0.0 0.00 0.10 0.10 54
20260905164011 20 102 0.0 0.0 0.00 0.10 0.10 53
20260905161957 20 227 0.0 0.0 0.00 0.10 0.10 52
20260905160944 20 342 1.6 1.6 0.00 0.10 0.10 52
20260905155939 20 225 0.0 0.0 0.00 0.10 0.10 52
20260905153908 22 96 0.0 0.0 0.00 0.10 0.10 47
20260905152904 22 342 1.6 1.6 0.00 0.10 0.10 44
20260905151855 22 275 0.0 0.0 0.00 0.10 0.10 45
20260905145821 21 76 0.0 0.0 0.00 0.10 0.10 47
20260905144809 21 0 3.2 3.2 0.00 0.10 0.10 45
20260905143757 21 241 0.0 0.0 0.00 0.10 0.10 45
20260905141735 22 342 3.2 3.2 0.00 0.10 0.10 43
20260905140735 22 251 1.6 1.6 0.00 0.10 0.10 40
20260905135727 23 330 4.8 4.8 0.00 0.10 0.10 40
20260905133701 22 132 0.0 0.0 0.00 0.10 0.10 41
20260905132654 23 198 0.0 0.0 0.00 0.10 0.10 39
20260905131630 22 330 4.8 4.8 0.00 0.10 0.10 44
20260905125554 22 270 6.4 8.0 0.00 0.10 0.10 43
20260905124547 22 336 3.2 3.2 0.00 0.10 0.10 44
20260905123537 21 288 9.7 9.7 0.00 0.10 0.10 45
20260905121501 22 280 3.2 3.2 0.00 0.10 0.10 48
20260905120501 21 342 3.2 3.2 0.00 0.10 0.10 50
20260905115449 21 30 0.0 0.0 0.00 0.10 0.10 51
20260905113358 21 348 0.0 0.0 0.00 0.10 0.10 54
20260905112357 20 200 4.8 6.4 0.00 0.10 0.10 56
20260905111241 18 179 1.6 1.6 0.00 0.10 0.10 59
20260905105211 18 234 0.0 0.0 0.00 0.10 0.10 62
20260905104159 17 234 0.0 0.0 0.00 0.10 0.10 64
20260905103151 17 310 1.6 1.6 0.00 0.10 0.10 66
20260905101131 16 252 0.0 0.0 0.03 0.10 0.10 70
20260905100123 17 270 1.6 1.6 0.03 0.10 0.10 70
20260905095111 17 344 1.6 1.6 0.03 0.10 0.10 70
20260905093035 16 193 0.0 0.0 0.08 0.10 0.10 72
20260905092026 16 288 0.0 0.0 0.08 0.10 0.10 74
20260905091001 16 225 1.6 1.6 0.10 0.10 0.10 74
20260905084927 16 312 0.0 0.0 0.08 0.08 0.08 74
20260905083916 15 318 4.8 4.8 0.08 0.08 0.08 77
20260905082905 16 270 0.0 0.0 0.05 0.05 0.05 75
20260905080833 16 290 3.2 3.2 0.03 0.03 0.03 70
20260905075822 17 306 1.6 1.6 0.00 0.00 0.00 66
20260905074811 17 34 0.0 0.0 0.00 0.00 0.00 69
20260905072735 18 317 3.2 3.2 0.00 0.00 0.00 61
20260905071724 18 258 3.2 3.2 0.00 0.00 0.00 59
20260905070713 18 204 3.2 3.2 0.00 0.00 0.00 60
20260905064641 18 204 4.8 4.8 0.00 0.00 0.00 61
20260905063629 18 30 0.0 0.0 0.00 0.00 0.00 63
20260905062620 18 130 0.0 0.0 0.00 0.00 0.00 63
20260905060545 18 331 0.0 0.0 0.00 0.00 0.00 62
20260905055534 18 16 3.2 3.2 0.00 0.00 0.00 61
20260905054524 18 299 1.6 1.6 0.00 0.00 0.00 61
20260905052435 18 186 0.0 0.0 0.00 0.00 0.00 60
20260905051424 18 156 1.6 1.6 0.00 0.00 0.00 60
20260905050414 18 264 1.6 1.6 0.00 0.00 0.00 60
20260905044340 18 246 0.0 0.0 0.00 0.00 0.00 60
20260905043333 18 306 0.0 0.0 0.00 0.00 0.00 61
20260905042321 18 291 1.6 1.6 0.00 0.00 0.00 61
20260905040248 18 329 3.2 3.2 0.00 0.00 0.00 63
20260905035236 18 46 0.0 0.0 0.00 0.00 0.00 62
20260905033204 19 186 0.0 0.0 0.00 0.00 0.00 59
20260905032154 20 354 0.0 0.0 0.00 0.00 0.00 57
20260905031143 20 198 0.0 0.0 0.00 0.00 0.00 60
20260905025108 20 160 4.8 4.8 0.00 0.00 0.00 61
20260905024058 20 288 0.0 0.0 0.00 0.00 0.00 61
20260905023047 20 303 0.0 0.0 0.00 0.00 0.00 59
20260905021013 21 204 0.0 0.0 0.00 0.00 0.00 57
20260905020002 21 219 0.0 0.0 0.00 0.00 0.00 56
20260905014951 21 288 0.0 0.0 0.00 0.00 0.00 56
20260905012922 22 284 1.6 1.6 0.00 0.00 0.00 54
20260905011911 21 276 0.0 0.0 0.00 0.00 0.00 54
20260905010859 21 186 0.0 0.0 0.00 0.00 0.00 54